Date,TemperatureHighF,TemperatureAvgF,TemperatureLowF,DewpointHighF,DewpointAvgF,DewpointLowF,HumidityHigh,HumidityAvg,HumidityLow,PressureMaxIn,PressureMinIn,WindSpeedMaxMPH,WindSpeedAvgMPH,GustSpeedMaxMPH,PrecipitationSumIn
2013-2-1,17,8,0,14,3,-4,89,78,67,30.39,30.18,10,6,19,0.00
2013-2-2,26,18,6,23,15,2,94,88,78,30.22,30.02,9,5,16,0.00
2013-2-3,23,17,8,19,12,4,92,83,72,30.09,29.98,14,4,19,0.00
2013-2-4,29,24,19,25,22,16,94,89,80,30.07,29.85,8,4,10,0.00
2013-2-5,32,24,13,29,22,11,94,89,80,30.09,29.82,13,5,19,0.00
2013-2-6,39,32,21,30,26,18,87,78,66,30.26,30.09,8,4,16,0.02
2013-2-7,43,34,31,38,32,28,98,92,79,30.16,29.86,10,4,17,0.44
2013-2-8,33,28,26,32,25,22,95,89,79,30.41,29.94,15,7,25,0.44
2013-2-9,36,31,27,30,26,21,87,81,76,30.41,30.12,10,4,20,0.00
2013-2-10,49,40,33,47,37,27,96,91,79,30.12,29.55,16,9,30,0.22
2013-2-11,45,34,29,41,27,23,86,76,71,30.06,29.59,17,11,32,0.01
2013-2-12,29,26,21,25,22,19,94,84,79,30.14,29.96,11,4,20,0.00
2013-2-13,45,33,22,34,29,20,96,85,65,29.96,29.75,10,3,15,0.00
2013-2-14,34,34,34,31,31,31,90,90,90,29.79,29.79,2,2,5,0.00
2013-2-15,24,23,21,16,14,12,72,70,66,30.18,30.18,10,8,16,0.00
2013-2-16,21,17,11,12,8,4,77,67,53,30.21,30.13,10,6,17,0.00
2013-2-17,31,20,7,18,8,2,84,61,36,30.23,30.05,9,3,15,0.00
2013-2-18,53,40,27,45,32,18,94,76,62,30.05,29.47,19,12,39,0.22
2013-2-19,30,16,10,28,12,5,91,81,75,30.20,29.61,17,12,31,0.22
2013-2-20,24,18,7,15,11,2,84,74,63,30.36,30.20,9,5,14,0.00
2013-2-21,29,25,20,24,20,14,94,80,76,30.38,29.99,13,6,24,0.00
2013-2-22,34,28,23,33,25,22,97,91,81,29.99,29.84,10,6,15,0.00
2013-2-23,28,25,18,24,21,16,91,83,71,29.99,29.95,8,4,14,0.00
2013-2-24,38,25,14,25,19,12,94,79,53,30.17,29.99,4,1,7,0.05
2013-2-25,43,34,23,30,27,20,90,75,58,30.20,29.98,8,4,14,0.01
2013-2-26,36,33,32,32,29,24,98,87,65,29.98,29.51,16,9,24,0.24
2013-2-27,34,32,32,33,32,31,98,96,92,29.71,29.52,10,4,15,0.17
2013-2-28,36,33,29,32,29,24,97,88,77,30.07,29.71,13,9,20,0.07